www.pogodaiklimat.ru

Погода и климат >> Архив погоды >> Австралия >> Новый Южный Уэльс >> Айванхо


ПОГОДА в Айванхо

  • Прогноз погоды в Айванхо
  • Монитор погоды в Айванхо

АРХИВ ПОГОДЫ в Айванхо

Время (UTC), дата Ветер
(напр.,м/с)
 
Видим.   Явления Облачность Т
(С)
Тd
(С)
f
(%)
Тe
(С)
Тes
(С)
Комфортность P
(гПа)
Po
(гПа)
Тmin
(С)
Tmax
(С)
R
(мм)
R24
(мм)
S
(см)
01 16.04 С 6 н/о н/о +27.3 +7.2 28 +27 +27 жарко 1021.5 1009.6
02 16.04 С 6 н/о н/о +28.1 +7.4 27 +27 +27 жарко 1020.7 1008.8 +18.7
04 16.04 С 5 н/о н/о +30.2 +6.1 22 +29 +29 жарко 1019.1 1007.3
05 16.04 С 4 н/о н/о +31.0 +6.1 21 +29 +29 жарко 1018.7 1006.9
07 16.04 СВ 4 н/о н/о +30.3 +5.6 21 +29 +29 жарко 1018.4 1006.6
08 16.04 СВ 3 н/о н/о +28.3 +4.6 22 +27 +27 жарко 1018.7 1006.9
10 16.04 СВ 3 н/о н/о +24.4 +4.7 28 +24 +24 комфорт 1019.7 1007.9
11 16.04 СВ 4 н/о н/о +23.7 +5.1 30 +24 +24 комфорт 1020.1 1008.3
13 16.04 СВ 4 н/о н/о +21.4 +4.9 34 +22 +22 комфорт 1020.0 1008.2
14 16.04 СВ 4 н/о н/о +20.3 +4.8 36 +21 +21 комфорт 1019.8 1008.0 +31.3
16 16.04 СВ 5 н/о н/о +20.9 +5.3 36 +22 +22 комфорт 1019.6 1007.8
17 16.04 С 4 н/о н/о +20.2 +5.4 38 +21 +21 комфорт 1019.3 1007.5
19 16.04 СВ 3 н/о н/о +18.1 +5.3 43 +18 +18 1019.5 1007.7
20 16.04 СВ 4 н/о н/о +17.2 +5.5 46 +17 +17 1020.2 1008.4
22 16.04 С 5 н/о н/о +20.2 +6.5 41 +21 +21 комфорт 1021.5 1009.6
23 16.04 С 7 н/о н/о +23.2 +7.3 36 +24 +24 комфорт 1021.7 1009.8
01 17.04 С 5 н/о н/о +27.8 +6.6 26 +27 +27 жарко 1022.0 1010.1
02 17.04 С 5 н/о н/о +29.4 +6.1 23 +28 +28 жарко 1021.5 1009.6 +17.1
04 17.04 С 4 н/о н/о +30.3 +4.9 20 +28 +28 жарко 1019.5 1007.7
05 17.04 СЗ 3 н/о н/о +30.9 +5.3 20 +29 +29 жарко 1019.1 1007.3
07 17.04 СЗ 2 н/о н/о +30.4 +4.9 20 +29 +29 жарко 1019.2 1007.4
08 17.04 С 2 н/о н/о +28.5 +4.7 22 +27 +27 жарко 1019.6 1007.8
10 17.04 С 2 н/о н/о +25.2 +5.4 28 +25 +25 комфорт 1020.9 1009.0
11 17.04 СВ 3 н/о н/о +23.5 +4.9 30 +23 +23 комфорт 1021.2 1009.3
13 17.04 СВ 4 н/о н/о +22.3 +5.3 33 +23 +23 комфорт 1021.0 1009.1
14 17.04 СВ 4 н/о н/о +21.8 +5.7 35 +22 +22 комфорт 1020.6 1008.7 +31.6
16 17.04 СВ 4 н/о н/о +20.9 +4.9 35 +22 +22 комфорт 1020.5 1008.6
17 17.04 С 4 н/о н/о +20.0 +4.9 37 +21 +21 комфорт 1020.2 1008.4
19 17.04 С 4 н/о н/о +18.9 +4.7 39 +19 +19 1020.9 1009.0
20 17.04 ЮЗ 3 н/о н/о +18.6 +4.8 40 +19 +19 1022.2 1010.3
22 17.04 Ю 3 н/о н/о +19.1 +7.5 47 +20 +20 1024.0 1012.1
23 17.04 Ю 4 н/о н/о +20.5 +10.3 52 +22 +22 комфорт 1024.7 1012.8
01 18.04 Ю 3 н/о н/о +24.1 +8.9 38 +25 +25 комфорт 1024.4 1012.5
02 18.04 СЗ 1 н/о н/о +25.9 +8.0 32 +26 +26 жарко 1023.9 1012.0 +16.8
04 18.04 ЮЗ 3 н/о н/о +28.4 +8.1 28 +28 +28 жарко 1022.4 1010.5
05 18.04 З 3 н/о н/о +28.8 +7.9 27 +28 +28 жарко 1022.1 1010.2
07 18.04 ЮЗ 4 н/о н/о +28.5 +7.7 27 +28 +28 жарко 1022.1 1010.2
08 18.04 Ю 3 н/о н/о +26.7 +7.7 30 +27 +27 жарко 1022.5 1010.6
10 18.04 Ю 4 н/о н/о +23.3 +7.4 36 +24 +24 комфорт 1023.8 1011.9
11 18.04 Ю 3 н/о н/о +21.7 +6.8 38 +22 +22 комфорт 1024.2 1012.3
13 18.04 Ю 3 н/о н/о +19.8 +4.7 37 +21 +21 комфорт 1024.5 1012.6
14 18.04 ЮВ 4 н/о н/о +19.1 +4.5 38 +20 +20 1024.3 1012.4 +29.9
16 18.04 В 3 н/о н/о +17.2 +4.5 43 +17 +17 1023.7 1011.8
17 18.04 В 3 н/о н/о +16.7 +4.4 44 +17 +17 1023.2 1011.3
19 18.04 Ю 3 н/о н/о +14.4 +3.5 48 +14 +14 1023.8 1011.9
20 18.04 Ю 3 н/о н/о +13.8 +2.4 46 +13 +13 1024.3 1012.4
22 18.04 ЮВ 3 н/о н/о +16.9 +1.0 34 +17 +17 1025.5 1013.6
23 18.04 В 2 н/о н/о +20.4 +2.7 31 +21 +21 комфорт 1025.8 1013.9
01 19.04 С 3 н/о н/о +28.0 +6.7 26 +27 +27 жарко 1024.9 1013.0
02 19.04 С 4 н/о н/о +29.8 +6.5 23 +29 +29 жарко 1024.1 1012.2 +13.5
04 19.04 СЗ 3 н/о н/о +30.9 +6.0 21 +29 +29 жарко 1022.1 1010.2
05 19.04 С 2 н/о н/о +31.1 +6.2 21 +29 +29 жарко 1021.7 1009.8
07 19.04 ЮВ 3 н/о н/о +30.7 +5.9 21 +29 +29 жарко 1021.3 1009.4
08 19.04 ЮВ 2 н/о н/о +28.3 +5.8 24 +27 +27 жарко 1021.7 1009.8
10 19.04 ЮВ 3 н/о н/о +24.9 +5.7 29 +25 +25 комфорт 1022.1 1010.2
11 19.04 ЮВ 3 н/о н/о +23.4 +5.3 31 +24 +24 комфорт 1022.5 1010.6
13 19.04 В 3 н/о н/о +22.3 +5.3 33 +23 +23 комфорт 1022.6 1010.7
14 19.04 В 4 н/о н/о +21.2 +5.1 35 +22 +22 комфорт 1022.3 1010.4 +32.1
16 19.04 В 3 н/о н/о +19.8 +5.1 38 +21 +21 комфорт 1021.9 1010.0
17 19.04 В 4 н/о н/о +18.9 +5.0 40 +19 +19 1021.5 1009.6
19 19.04 В 4 н/о н/о +17.5 +5.1 44 +17 +17 1021.4 1009.5
20 19.04 В 4 н/о н/о +16.7 +5.0 46 +16 +16 1021.9 1010.0
22 19.04 СВ 4 н/о н/о +20.6 +8.3 45 +22 +22 комфорт 1022.5 1010.6
23 19.04 СВ 5 н/о н/о +24.4 +9.2 38 +25 +25 комфорт 1022.8 1010.9
01 20.04 СВ 6 н/о н/о +29.0 +9.7 30 +29 +29 жарко 1021.8 1009.9
02 20.04 СВ 6 н/о н/о +30.1 +8.5 26 +29 +29 жарко 1021.1 1009.2 +15.7
04 20.04 СВ 4 н/о н/о +31.3 +7.1 22 +30 +30 жарко 1018.7 1006.9
05 20.04 СВ 5 н/о н/о +31.9 +6.9 21 +30 +30 жарко 1018.1 1006.3
07 20.04 СВ 6 н/о н/о +30.9 +6.0 21 +29 +29 жарко 1017.1 1005.3
08 20.04 СВ 3 н/о н/о +28.8 +6.8 25 +28 +28 жарко 1016.9 1005.1
10 20.04 СВ 4 н/о н/о +26.2 +6.8 29 +26 +26 жарко 1017.8 1006.0
11 20.04 СВ 4 н/о н/о +26.3 +6.9 29 +26 +26 жарко 1017.9 1006.1
13 20.04 СВ 4 н/о н/о +24.1 +7.7 35 +24 +24 комфорт 1018.0 1006.2
14 20.04 С 4 н/о н/о +22.3 +7.7 39 +23 +23 комфорт 1018.0 1006.2 +32.5
16 20.04 СВ 4 н/о н/о +21.5 +8.4 43 +23 +23 комфорт 1017.3 1005.5
17 20.04 СВ 3 н/о н/о +20.8 +9.1 47 +23 +23 комфорт 1017.2 1005.4
19 20.04 СВ 4 н/о н/о +21.3 +10.2 49 +23 +23 комфорт 1017.2 1005.4
20 20.04 СВ 5 н/о н/о +21.5 +10.6 50 +23 +23 комфорт 1017.5 1005.7
22 20.04 СВ 6 н/о н/о +22.8 +11.8 50 +25 +25 комфорт 1018.3 1006.5
23 20.04 СВ 6 н/о н/о +24.6 +12.2 46 +26 +26 жарко 1018.7 1006.9
01 21.04 С 6 н/о н/о +29.2 +12.2 35 +30 +30 жарко 1018.7 1006.9
02 21.04 С 7 н/о н/о +31.3 +12.6 32 +32 +32 жарко 1018.0 1006.2 +20.3
04 21.04 С 6 н/о н/о +30.3 +12.2 33 +31 +31 жарко 1016.4 1004.6
05 21.04 С 5 н/о н/о +30.6 +12.0 32 +31 +31 жарко 1015.9 1004.1
07 21.04 Ю 3 н/о н/о +25.7 +13.9 48 +28 +28 жарко 1016.2 1004.4
08 21.04 Ю 7 н/о н/о +20.9 +15.7 72 +24 +24 комфорт 1017.4 1005.6
10 21.04 ЮВ 2 н/о н/о +18.8 +16.6 87 +20 +20 1020.1 1008.3
11 21.04 ЮВ 5 н/о туман местами н/о +18.2 +17.9 98 +18 +18 1019.1 1007.3
13 21.04 Ю 1 н/о н/о +18.2 +18.0 99 +20 +20 1021.0 1009.1
14 21.04 З 3 н/о туман местами н/о +18.1 +17.9 99 +18 +18 1020.5 1008.6 +31.9
16 21.04 Ю 1 н/о н/о +18.1 +18.1 100 +19 +19 1020.8 1008.9
17 21.04 В 6 н/о туман местами н/о +17.7 +17.7 100 +17 +17 1019.1 1007.3
19 21.04 ЮВ 4 н/о н/о +17.4 +17.2 99 +17 +17 1020.1 1008.3
20 21.04 В 4 н/о {туман} н/о +17.4 +17.2 99 +17 +17 1020.2 1008.4
22 21.04 В 4 н/о н/о +17.1 +16.9 99 +17 +17 1020.9 1009.0
23 21.04 Ю 2 н/о {туман} н/о +17.5 +17.3 99 +18 +18 1021.8 1009.9
01 22.04 ЮВ 3 н/о н/о +19.0 +15.9 82 +21 +21 комфорт 1021.9 1010.0
02 22.04 ЮВ 3 н/о н/о +19.2 +16.8 86 +21 +21 комфорт 1021.5 1009.6 +17.1
04 22.04 В 3 н/о н/о +19.5 +15.0 75 +22 +22 комфорт 1021.3 1009.4
05 22.04 Ю 2 н/о в посл. час дождь {туман} н/о +19.9 +15.3 75 +23 +23 комфорт 1021.4 1009.5
07 22.04 Ю 4 н/о н/о +19.8 +15.7 77 +22 +22 комфорт 1021.2 1009.3
08 22.04 Ю 6 н/о н/о +18.6 +16.2 86 +19 +19 1021.7 1009.8
10 22.04 Ю 4 н/о н/о +17.8 +16.5 92 +18 +18 1023.3 1011.4
11 22.04 Ю 4 н/о н/о +17.6 +17.3 98 +17 +17 1023.4 1011.5
13 22.04 Ю 2 н/о н/о +17.3 +17.1 99 +18 +18 1023.5 1011.6
14 22.04 Ю 2 н/о в посл. час дождь {туман} н/о +17.2 +17.0 99 +18 +18 1023.4 1011.5 +20.3
16 22.04 ЮВ 3 н/о н/о +17.0 +17.0 100 +17 +17 1022.7 1010.8
17 22.04 ЮВ 3 н/о туман местами н/о +17.0 +17.0 100 +17 +17 1022.3 1010.4
19 22.04 В 3 н/о н/о +17.1 +17.1 100 +17 +17 1022.8 1010.9
20 22.04 ЮВ 3 н/о {туман} н/о +17.0 +17.0 100 +17 +17 1023.0 1011.1
22 22.04 ЮВ 3 н/о н/о +17.4 +17.4 100 +17 +17 1023.4 1011.5
23 22.04 ЮВ 3 н/о {туман} н/о +18.9 +18.7 99 +21 +21 комфорт 1023.5 1011.6

 

Местоположение метеостанции Айванхо (Новый Южный Уэльс, Австралия): широта -32.88 долгота 144.32 высота над уровнем моря 100 м.

В архиве по умолчанию представлена погода в Айванхо за последнюю неделю. Архивные данные за месяц целиком и за предыдущие месяцы, начиная с января 2011 года, Вы можете получить, выбрав интересующий диапазон дат из раскрывающегося списка и нажав кнопку "Ввод!".


*Определитесь, кто Вы:
робот инопланетянин человек

Внимание! Время в таблицах - всемирное. Для получения местного времени необходимо прибавить поправку, которая равна 10 ч.

Смотрите также архив погоды в соседних городах и на ближайших метеорологических станциях:

Погода в Уилкании (Новый Южный Уэльс, Австралия) (175 км)
Погода в Хее (Новый Южный Уэльс, Австралия) (189 км)
Погода в Кобар аэропорту (Новый Южный Уэльс, Австралия) (205 км)
Погода в Кобаре (Новый Южный Уэльс, Австралия) (211 км)
Погода в Гриффите (Новый Южный Уэльс, Австралия) (223 км)
Погода в Уафт Клифс (Новый Южный Уэльс, Австралия) (255 км)
Погода в Милдьюре (Новый Южный Уэльс, Австралия) (256 км)
Погода в Кондоболине (Новый Южный Уэльс, Австралия) (271 км)
Погода в Янко (Новый Южный Уэльс, Австралия) (275 км)
Погода в Брокен-Хилл аэропорту (Новый Южный Уэльс, Австралия) (286 км)

Пояснения к столбцам:

Ветер - указаны скорость ветра в м/с - средняя за 10 мин, порывы в срок и между сроками (в фигурных скобках) и направление, откуда дует ветер: С - северный, СВ - северо-восточный, В - восточный, ЮВ - юго-восточный, Ю - южный, ЮЗ - юго-западный, З - западный, СЗ - северо-западный.
Видимость - горизонтальная дальность видимости в метрах или километрах. При видимости от 1 до 10 км при отсутствии осадков обычно наблюдается дымка, при ухудшении видимости до 1 км и менее - туман. В сухую погоду видимость может ухудшаться дымом, пылью или мглою.
Явления - указаны атмосферные явления, наблюдавшиеся в срок или в последний час перед сроком; фигурными скобками обозначены явления, наблюдавшиеся между сроками (за 1-3 часа до срока); квадратными скобками обозначены град или гололедные отложения с указанием их диаметра в мм.
Облачность - указаны через наклонную черту общая и нижняя облачность в баллах и высота нижней границы облаков в метрах; квадратными скобками обозначены формы облаков: Ci - перистые, Cs - перисто-слоистые, Cc - перисто-кучевые, Ac - высококучевые, As - высокослоистые, Sc - слоисто-кучевые, Ns - слоисто-дождевые, Cu - кучевые, Cb - кучево-дождевые. Подробнее классификацию облаков см. в Атласе облаков (PDF).
T - Температура воздуха - температура, измеренная на высоте 2 м над землей.
Td - Температура точки росы - температура, при понижении до которой содержащийся в воздухе водяной пар достигнет насыщения.
f - Относительная влажность воздуха - влажноcть воздуха, измеренная на высоте 2 м над землей.
Te - Эффективная температура - температура, которую ощущает одетый по сезону человек в тени. Характеристика душности погоды. При расчете учитывается влияние влажности воздуха и скорости ветра на теплоощущения человека.
Tes - Эффективная температура на солнце - температура, которую ощущает человек, с поправкой на солнечный нагрев. Характеристика знойности погоды. Зависит от высоты солнца над горизонтом, облачности и скорости ветра. Ночью, в пасмурную погоду, а также при ветре 12 м/с и более поправка равна нулю.
P - Атмосферное давление - приведенное к уровню моря атмосферное давление.
Po - Атмосферное давление - измеренное на уровне метеостанции атмосферное давление.
Tmin - Минимальная температура - минимум температуры воздуха на высоте 2 м над землей.
Tmax - Максимальная температура - максимум температуры воздуха на высоте 2 м над землей.
R - Количество осадков - Количество выпавших осадков за период времени, мм. При наведении курсора мыши на число - период времени, за который выпало указанное количество осадков.
R24 - Количество осадков - Количество выпавших осадков за 24 часа, мм.
S - Снежный покров - Высота снежного покрова, см. При наведении курсора мыши на число - состояние снежного покрова и степень покрытия местности в баллах.